06:00
Airports
History
Links
Donate
Help keep this website running!
PayPal
Bitcoin
Information on this page is community maintained and may be outdated or inaccurate and is intended for reference only or PC simulator navigating!
Always use approved charts for navigating.
SDYJ
Jose Martins da Silva
Jose Martins da Silva (SDYJ)
Regente Feijó, São Paulo, Brazil (19570)
4
Lat/Lng:22° 13' 32" S / 51° 20' 53" W
-22.225556 / -51.348056
Elevation:1663'ft 507mMSL
ID / ICAO:SDYJ
Runways:1
Longest:(08-26) 804.7m 2,640ft Dirt
Distance To
Airport ID:
Nearby WeatherUpdated 12-11-16 05:00 GMT
Nearby weather at SBDN, Presidente Prudente located 6.0 nautical miles from SDYJ
Altimeter: 29.83
Visibility: 6.2 statute miles
Wind: 6 knots (040°)
Temp: 21°c 70°f
Humidity: 94.0%

METAR: SBDN 110500Z 04006KT CAVOK 21/20 Q1010

(Powered by phpweather)
Runway 08 / 26
Dimensions:804.7 x 20.1m 2640' x 66'ft
Surface:Dirt
Runway 08 [A]Runway 26 [B]
Heading:059°TH 239°TH
Lat:
Lng:
22° 13' 38.55"S
51° 21' 5.24"W
22° 13' 25.45"S
51° 20' 40.76"W
Google Map
Nearby Airports
(C) Presidente Prudente 6.0 NM
SBDN (WX) NW 305°
4 Estancia Machado 10.9 NM
SDEM NW 322°
4 Elisa Camargo de Arruda Botelho 18.2 NM
SIIG ESE 119°
(U) FAZENDA NOVA CALIFORNIA 19.1 NM
SDEG SSE 150°
4 Atena 21.0 NM
SDPC ENE 76°
4 Fazenda Nova Damasco 21.2 NM
SDND SSW 213°
4 Fazenda Nova Floresta 24.8 NM
SDQG NNE 24°
VFR Chart
Flight Planning at SkyVector.com